Location: Meanaryar
(48.4161°N, 4.7315°W)
Time: 17:10:28
(UTC+00:00)

NOSS 3-2 (A) - Pass Details

Date: 18 September 2020
Orbit: 795 x 1413 km, 63.4° (Epoch: 28 October)

Event Time Altitude Azimuth Distance (km) Brightness Sun altitude
Rises 19:58:30 0° 318° (NW) 3,911 7.8 -16.0°
Reaches altitude 10° 20:01:02 10° 319° (NW) 3,034 7.0 -16.4°
Maximum altitude 20:08:27 83° 47° (NE) 1,277 4.0 -17.6°
Enters shadow 20:13:58 24° 135° (SE) 2,467 5.0 -18.4°
